Location: Brabourne
(51.1333°N, 1.0000°E)
Time: 12:16:44
(UTC+00:00)

IRS-1D - Pass Details

Date: 24 October 2021
Orbit: 739 x 817 km, 98.6° (Epoch: 30 November)

Event Time Altitude Azimuth Distance (km) Brightness Sun altitude
Rises 03:51:27 0° 8° (N) 3,278 7.0 -26.1°
Reaches altitude 10° 03:54:05 10° 357° (N) 2,332 6.1 -25.7°
Enters shadow 03:56:08 20° 338° (NNW) 1,729 5.2 -25.4°
